Location: London
(51.5074°N, 0.1278°W)
Time: 15:07:00
(UTC+01:00)

ISS - Pass Details

Date: 05 April 2018
Orbit: 403 x 406 km, 51.6° (Epoch: 22 April)

Event Time Altitude Azimuth Distance (km) Brightness Sun altitude
Rises 20:25:42 0° 280° (W) 2,335 2.2 -7.6°
Reaches altitude 10° 20:27:47 10° 279° (W) 1,473 0.6 -7.9°
Maximum altitude 20:31:05 75° 194° (SSW) 428 -3.8 -8.4°
Enters shadow 20:34:00 13° 109° (ESE) 1,320 -1.9 -8.8°
